Olympia, WA
on Monday, January 28, 2013

Monday
Previous Day Next Day
Daily Summary
 ActualAverageRecord
Temperature
Mean Temperature °F 40°F  
Max Temperature 44°F 47°F 60°F (1976)
Min Temperature 39°F 34°F -4°F (1972)
Degree Days
Heating Degree Days 23 25  
Month to date heating degree days 819 710  
Since 1 July heating degree days 2982 2980  
Cooling Degree Days 0 0  
Month to date cooling degree days 0 0  
Year to date cooling degree days 0 0  
Moisture
Dew Point 38°F   
Average Humidity 83    
Maximum Humidity 96    
Minimum Humidity 70    
Precipitation
Precipitation 0.05 in 0.23 in 2.25 in (1999)
Month to date precipitation 3.57 7.14  
Year to date precipitation 3.57 7.14  
Wind
Wind Speed 10 mph   
Max Wind Speed 18 mph   
Max Gust Speed 24 mph   
Visibility 10 miles   
Events Rain   

Key: T is trace of precipitation, MM is missing value
Source: NWS Daily Summary
Time(PST)TemperatureDew PointHumidity Pressure Visibility Wind DirectionWind SpeedGust SpeedPrecipitationEvents Conditions
12:54 AM 39.9°F 36.0°F 86% 30.02 in 10.0 miles WSW 6.9 mph - N/A   Clear
1:54 AM 41.0°F 35.1°F 79% 30.03 in 10.0 miles WSW 5.8 mph - N/A   Clear
2:54 AM 42.1°F 36.0°F 79% 30.04 in 10.0 miles WSW 10.4 mph - N/A   Partly Cloudy
3:54 AM 42.1°F 35.1°F 76% 30.05 in 10.0 miles WSW 9.2 mph - N/A   Mostly Cloudy
4:54 AM 42.1°F 34.0°F 73% 30.05 in 10.0 miles WSW 6.9 mph - N/A   Partly Cloudy
5:54 AM 41.0°F 35.1°F 79% 30.05 in 10.0 miles WSW 11.5 mph - N/A   Clear
6:54 AM 42.8°F 35.6°F 76% 30.06 in 10.0 miles WSW 12.7 mph - N/A   Mostly Cloudy
7:54 AM 42.1°F 35.1°F 76% 30.08 in 10.0 miles WSW 12.7 mph - N/A   Mostly Cloudy
8:54 AM 42.1°F 36.0°F 79% 30.08 in 10.0 miles WSW 15.0 mph - N/A   Overcast
9:54 AM 43.0°F 36.0°F 76% 30.09 in 10.0 miles SW 11.5 mph - N/A   Overcast
10:54 AM 43.0°F 37.0°F 80% 30.10 in 10.0 miles WSW 10.4 mph - N/A   Overcast
11:54 AM 42.1°F 39.9°F 92% 30.10 in 9.0 miles SW 8.1 mph - 0.00 in Rain Light Rain
12:54 PM 42.1°F 39.9°F 92% 30.08 in 7.0 miles SSW 8.1 mph - 0.01 in Rain Light Rain
1:28 PM 43.0°F 39.9°F 89% 30.08 in 8.0 miles SSW 6.9 mph - 0.00 in Rain Light Rain
1:54 PM 43.0°F 41.0°F 93% 30.07 in 8.0 miles SSW 9.2 mph - 0.01 in Rain Light Rain
2:54 PM 43.0°F 39.9°F 89% 30.06 in 10.0 miles SW 10.4 mph - 0.00 in Rain Light Rain
3:54 PM 43.0°F 39.9°F 89% 30.08 in 10.0 miles SW 6.9 mph - 0.01 in Rain Light Rain
4:54 PM 43.0°F 39.0°F 86% 30.06 in 10.0 miles SW 11.5 mph - 0.00 in Rain Light Rain
5:54 PM 42.1°F 39.0°F 89% 30.08 in 10.0 miles SW 11.5 mph - 0.00 in Rain Light Rain
6:12 PM 42.1°F 39.0°F 89% 30.08 in 10.0 miles SW 9.2 mph - 0.01 in Rain Light Rain
6:34 PM 42.1°F 39.0°F 89% 30.08 in 10.0 miles SSW 9.2 mph - 0.01 in Rain Light Rain
6:47 PM 42.1°F 39.0°F 89% 30.08 in 10.0 miles SW 10.4 mph - 0.01 in   Overcast
6:54 PM 42.1°F 39.0°F 89% 30.09 in 10.0 miles SW 9.2 mph - 0.01 in   Overcast
7:54 PM 42.1°F 39.0°F 89% 30.09 in 10.0 miles SW 12.7 mph - 0.01 in   Overcast
8:25 PM 42.1°F 39.0°F 89% 30.08 in 10.0 miles SW 13.8 mph - N/A   Overcast
8:54 PM 43.0°F 39.0°F 86% 30.09 in 10.0 miles SW 11.5 mph - N/A   Overcast
9:13 PM 43.0°F 39.0°F 86% 30.10 in 10.0 miles SW 10.4 mph - N/A   Overcast
9:27 PM 43.0°F 39.0°F 86% 30.09 in 10.0 miles WSW 12.7 mph - N/A   Overcast
9:54 PM 43.0°F 39.0°F 86% 30.09 in 10.0 miles SW 9.2 mph - N/A   Overcast
10:15 PM 43.0°F 39.0°F 86% 30.10 in 10.0 miles SW 11.5 mph - N/A   Overcast
10:54 PM 43.0°F 39.9°F 89% 30.10 in 10.0 miles SW 12.7 mph - N/A   Overcast
11:04 PM 43.0°F 39.9°F 89% 30.10 in 10.0 miles SW 13.8 mph 21.9 mph N/A   Overcast
11:54 PM 43.0°F 39.9°F 89% 30.12 in 10.0 miles WSW 13.8 mph - N/A   Overcast
Moon Phase
Jan. 28 Feb. 03 Feb. 10 Feb. 17 Feb. 25
Sunrise:07:40 AM (PST) Moon Rise:07:20 PM (PST)1/28
Sunset:05:09 PM (PST) Moon Set:07:59 AM (PST)1/28

Copyright © 2014 The Weather Underground, Inc.